Regional Weather Roundup
Issued by NWS

Home | Current Version | Previous Version | Text Only | Print | Product List | Glossary Off
Versions: 1 2 3 4 5 6 7 8 9 10 11 12 13 14 15 16 17 18 19 20 21 22 23 24 25 26 27 28 29 30 31 32 33 34 35 36 37 38 39 40 41 42 43 44 45 46 47 48 49 50

000
ASUS44 KMEG 270910
RWRTN
TENNESSEE HOURLY STATE WEATHER ROUNDUP
NATIONAL WEATHER SERVICE MEMPHIS TN
400 AM CDT MON MAR 27 2017

TNZ002-004-019-021-049-052-054-088>092-271000-
WEST TENNESSEE

CITY           SKY/WX    TMP DP  RH WIND       PRES   REMARKS
MEMPHIS INTL   CLOUDY    66  57  72 S12       29.89R
NWS MEMPHIS      N/A     65 N/A N/A MISG        N/A
JACKSON        CLOUDY    57  53  86 SE5       29.90F
DYERSBURG      MOCLDY    59  53  80 E6        29.88F
SOMERVILLE     CLOUDY    63  57  82 S9        29.89R HAZE
BOLIVAR        MOCLDY    61  55  82 S10       29.91R
PARIS          CLEAR     54  48  82 E7        29.90F
HUNTINGDON     CLOUDY    55  52  88 CALM      29.89F
SAVANNAH       MOCLDY    63  57  82 S8        29.92S
$$

TNZ008-025-027-028-033-062-065-066-271000-
NORTH MIDDLE TENNESSEE

CITY           SKY/WX    TMP DP  RH WIND       PRES   REMARKS
NASHVILLE      MOCLDY    59  54  83 SE6       29.94F
PORTLAND       PTCLDY    54  54 100 CALM      29.95S
CLARKSVILLE    CLOUDY    54  49  83 E5        29.92F
SMYRNA         PTCLDY    53  52  96 CALM      29.95
COOKEVILLE     PTCLDY    50  50 100 CALM      29.96F
GALLATIN       PTCLDY    54  52  94 CALM      29.97F
CROSSVILLE     CLOUDY    53  50  89 S3        30.02F
$$

TNZ061-075-076-078-094-096-097-271000-
SOUTH MIDDLE TENNESSEE

CITY           SKY/WX    TMP DP  RH WIND       PRES   REMARKS
FAYETTEVILLE   PTCLDY    61  57  88 S7        29.98S
TULLAHOMA      CLEAR     52  52 100 S6        29.99S
WINCHESTER     CLEAR     63  57  82 S5        29.99S
MCMINNVILLE    CLEAR     52  52 100 CALM      29.97F
COLUMBIA       CLEAR    N/A N/A N/A S10       29.92F
SHELBYVILLE    CLEAR     57  55  94 SE3       29.97F
$$

TNZ017-018-042-046-047-271000-
NORTHEAST TENNESSEE

CITY           SKY/WX    TMP DP  RH WIND       PRES   REMARKS
TRI CITIES     MOCLDY    56  53  90 CALM      30.04S
ELIZABETHTON   MOCLDY    54  52  94 CALM      30.05S
$$

TNZ012-013-036-069-073-074-271000-
CENTRAL EAST TENNESSEE

CITY           SKY/WX    TMP DP  RH WIND       PRES   REMARKS
KNOXVILLE      CLEAR     58  52  80 CALM      30.00F
OAK RIDGE      PTCLDY    55  51  86 CALM      30.02F
DOWNTOWN KNOXV PTCLDY    55  55 100 CALM      30.01F
GATLINBURG     CLEAR     52  48  87 CALM      30.02S
MORRISTOWN     CLOUDY    57  55  94 CALM      30.02S
JACKSBORO      CLEAR     52  50  93 CALM      30.04F
$$

TNZ083-085-099-271000-
SOUTHEAST TENNESSEE

CITY           SKY/WX    TMP DP  RH WIND       PRES   REMARKS
CHATTANOOGA    CLOUDY    55  52  89 CALM      30.01F
$$

SKY/WX REPORTED AS FAIR MEANS FEW OR NO CLOUDS BELOW
12 THOUSAND FEET.




USA.gov is the U.S. government's official web portal to all federal, state and local government web resources and services.